Temperature
17 17 17 17 17 17 17 17 17 18 18 18 18 19 19 18 18 18 17 18 17 17 17 17 17 17 18 18 18 18 17 17 17 17 17 17 17 17 17 17 17 17 17
17 17 17 17 17 17 17 17 18 18 18 18 18 18 18 18 18 18 17 17 17 17 17 17 17 17 17 17 17 17 17 17 17 17 17 17 17 17 17 17 17 17 17
17 17 17 17 17 17 17 17 18 18 18 18 18 18 18 18 18 18 17 17 17 17 17 17 17 17 17 17 17 17 17 17 17 17 17 17 17 17 17 17 17 17 17
17 17 17 17 17 17 17 17 17 17 18 18 19 18 18 18 18 18 18 17 17 17 17 17 17 17 17 17 17 17 17 17 17 17 17 17 17 17 17 17 17 16 16
17 17 17 17 17 17 17 17 17 18 18 18 18 18 19 18 18 18 18 18 17 17 17 17 17 17 17 17 17 17 17 17 17 16 16 16 16 16 16 16 16 16 16
17 17 17 17 17 17 17 17 17 17 18 18 18 18 18 18 18 18 18 18 18 17 17 16 17 17 17 17 17 17 17 17 17 17 17 16 16 16 16 16 16 16 16
17 17 17 17 17 17 17 17 17 17 17 18 18 18 18 18 18 18 18 18 18 18 17 17 17 16 17 17 17 17 17 17 17 17 17 17 16 16 16 16 16 16 16
17 17 17 17 17 17 17 17 17 17 17 17 18 18 18 18 17 18 18 17 18 18 17 17 17 17 17 17 17 17 17 17 17 17 17 17 16 16 16 16 16 16 16
17 17 17 17 17 17 17 17 17 17 17 17 17 18 18 18 18 18 18 18 18 18 17 17 17 17 17 17 16 17 17 17 17 17 17 17 16 16 16 16 16 16 16
17 17 17 17 17 17 17 17 17 17 17 17 17 17 18 18 18 18 17 18 18 17 17 17 17 17 17 17 16 16 17 17 17 16 16 16 16 16 16 16 16 16 16
16 16 17 17 17 17 17 17 17 17 17 17 17 17 17 17 17 17 17 17 17 17 17 17 17 17 17 16 16 16 17 16 16 16 16 16 16 16 16 16 16 16 15
16 16 16 16 16 16 16 17 16 17 17 16 16 16 16 16 16 17 16 16 16 17 16 16 16 16 16 16 16 16 16 16 16 16 16 16 16 16 16 16 16 15 15
15 16 16 16 16 16 16 16 16 16 16 16 16 16 16 16 16 16 16 16 16 16 16 16 16 16 16 16 16 16 16 16 16 16 16 15 15 15 15 15 15 15 15
15 15 15 16 16 16 16 16 16 16 16 16 16 16 15 16 15 15 15 15 15 15 15 16 16 16 16 16 16 16 16 16 16 16 16 15 15 15 15 15 15 15 15
14 15 15 15 15 15 16 15 15 15 15 15 15 15 15 15 15 15 15 15 15 15 15 15 15 15 15 15 16 16 15 16 16 16 15 15 15 15 15 15 15 14 14
14 14 14 14 15 15 15 15 15 15 15 15 15 15 15 14 14 14 14 14 14 14 14 14 14 14 15 15 15 15 15 15 16 15 15 15 15 15 14 14 14 14 14
13 13 14 14 14 14 14 14 14 14 14 14 14 14 14 14 14 14 14 14 14 14 14 14 14 14 14 14 14 15 15 15 15 15 15 15 15 14 14 14 14 14 14
13 13 13 13 13 13 13 14 14 14 14 14 14 14 14 14 13 13 14 14 14 14 14 14 14 14 14 14 14 14 14 14 14 15 15 14 14 14 14 14 14 14 14
12 12 12 13 13 13 13 13 13 13 13 13 13 13 13 13 13 13 13 14 14 14 14 14 13 13 13 14 14 14 14 14 13 14 14 14 14 14 14 13 13 13 13
12 12 12 12 12 12 12 13 13 13 13 13 13 13 13 13 13 13 13 13 13 14 14 13 13 13 13 13 13 13 13 13 13 13 13 13 13 13 13 13 13 13 13
11 12 12 12 12 12 12 12 12 12 13 13 13 13 13 13 13 13 13 13 13 13 13 13 13 13 13 13 13 13 13 13 13 13 13 13 13 12 12 12 12 12 12
11 11 11 11 12 12 12 12 12 12 12 13 13 13 13 13 13 13 13 13 13 13 13 13 13 13 13 13 13 13 13 13 12 12 12 12 12 12 12 12 12 12 12
11 11 11 11 11 11 12 12 12 12 12 12 12 13 13 13 13 13 14 14 14 14 13 13 13 13 13 13 13 13 13 13 12 12 12 11 11 11 11 11 11 11 11
10 10 11 11 11 11 11 12 12 12 12 12 12 12 13 13 13 13 13 13 13 13 13 13 13 13 13 13 12 12 12 12 12 12 12 11 11 10 10 10 10 11 11
10 10 10 10 10 10 11 11 11 11 11 12 12 12 12 13 13 13 13 13 13 13 13 13 13 13 13 13 13 12 12 12 12 11 11 11 10 10 10 10 10 10 10
9 9 9 10 10 10 10 11 11 11 11 11 12 12 12 13 13 13 13 13 13 13 13 13 13 13 12 13 12 12 12 12 12 11 11 11 11 10 10 9 9 9 9
Wind_Speed
8 7 7 7 8 7 7 7 8 7 7 7 6 6 5 4 4 3 6 6 3 2 2 3 4 3 3 2 3 4 4 4 5 5 5 5 6 6 5 4 3 2 1
9 7 8 7 8 8 8 8 8 6 7 6 6 6 5 5 4 4 3 7 6 3 2 2 3 3 3 2 2 3 4 4 4 4 4 4 4 4 3 2 1 1 2
11 10 8 8 8 9 10 8 8 7 6 6 7 7 6 5 5 5 4 3 6 8 5 2 2 3 3 3 3 3 3 3 4 4 4 4 3 3 2 2 2 3 4
13 11 9 8 9 8 8 7 7 7 8 7 7 7 6 6 7 5 5 6 4 4 8 6 2 2 3 3 3 3 3 3 4 4 3 3 3 2 2 2 3 4 4
14 12 9 9 10 8 8 8 9 8 8 7 7 6 6 6 6 6 7 6 6 5 5 8 6 4 3 3 2 2 3 4 4 4 3 3 3 2 2 2 3 3 4
13 12 9 10 10 8 8 9 9 8 7 7 8 7 7 6 6 7 6 5 6 6 5 5 7 8 7 4 3 2 2 3 4 4 4 3 3 2 2 2 3 3 4
12 12 10 10 10 10 10 11 9 10 9 8 7 7 8 9 8 7 7 7 7 6 6 7 5 5 7 9 6 4 3 3 3 3 3 3 3 2 2 2 3 3 4
12 11 11 9 10 9 11 11 10 9 9 8 8 7 7 8 7 9 8 8 8 7 8 8 8 7 5 6 8 7 4 3 3 3 3 3 3 2 2 2 3 3 3
12 11 10 10 10 10 10 11 11 11 10 10 10 7 6 7 6 7 10 9 9 7 7 8 8 9 8 6 7 10 8 5 4 4 4 3 3 2 2 2 2 1 1
10 11 11 12 12 11 11 12 12 10 10 9 8 9 8 5 5 5 6 8 8 8 8 7 8 8 8 8 6 6 9 8 6 5 5 4 3 3 2 1 1 1 1
8 10 11 11 12 10 11 12 11 11 10 10 8 7 8 6 9 6 5 5 6 6 6 7 6 8 8 9 8 9 11 10 9 8 6 5 4 3 3 2 2 2 2
5 8 9 10 11 10 11 10 11 11 10 10 8 7 7 6 7 7 7 6 5 4 4 4 5 5 7 8 9 8 11 12 11 10 8 7 5 4 4 4 3 3 3
3 5 6 8 9 10 10 9 10 11 11 10 9 8 7 7 5 5 6 5 5 4 3 4 4 5 6 7 8 9 11 12 12 12 10 9 8 6 5 5 5 4 5
1 3 4 5 7 8 9 9 9 11 10 10 10 9 6 6 5 5 5 4 4 5 5 5 2 3 4 6 4 7 9 13 13 13 11 11 10 9 7 6 6 6 6
1 0 1 2 3 5 7 8 7 9 9 9 9 9 7 5 5 5 4 5 5 5 5 4 3 2 2 3 2 6 8 10 11 11 11 11 11 10 9 8 8 8 7
5 3 2 1 2 2 4 6 6 7 8 7 7 8 7 5 5 4 5 5 5 4 3 3 3 2 1 2 2 4 4 8 8 8 8 9 10 9 9 9 9 9 9
7 6 5 4 4 3 2 3 4 5 7 7 7 8 7 6 5 5 5 5 5 4 4 3 2 2 2 2 2 2 3 5 6 6 5 5 6 7 7 7 7 8 8
8 7 7 6 5 4 3 3 3 4 5 6 6 6 6 5 6 5 5 5 5 5 4 4 3 2 2 1 2 3 3 3 4 7 5 3 3 2 2 3 4 5 6
9 9 8 7 7 5 4 3 3 3 3 4 5 6 6 6 6 5 5 5 5 4 4 4 4 3 2 2 3 3 4 3 4 7 7 7 6 6 5 3 3 3 3
10 9 9 8 7 7 6 4 3 3 3 3 4 4 4 5 5 6 5 6 5 5 4 4 4 4 3 2 3 4 4 4 4 5 6 8 9 9 9 8 7 6 5
10 10 10 9 9 7 7 6 3 3 4 4 4 4 3 2 2 3 4 5 6 5 5 5 4 4 4 3 3 3 5 5 5 4 5 6 7 7 7 9 9 9 9
10 10 10 10 10 8 9 8 5 3 4 4 4 4 4 4 5 4 4 4 3 4 5 5 4 5 5 4 3 3 5 5 4 3 5 6 7 7 9 10 12 13 13
10 10 10 10 10 11 11 8 6 3 4 4 4 3 3 4 5 7 9 9 8 7 3 3 5 5 5 4 4 4 4 5 5 3 5 6 6 7 9 13 16 16 16
9 9 9 9 8 11 13 9 5 4 5 5 4 3 3 5 6 7 9 9 9 7 4 4 6 7 6 5 4 5 7 8 7 4 3 4 5 6 8 12 17 18 19
8 8 8 9 9 10 13 11 6 5 5 6 5 4 3 5 5 3 8 10 10 8 12 15 15 12 12 9 4 4 5 6 6 4 3 3 4 5 6 7 12 17 18
7 7 8 8 9 9 12 12 7 4 5 5 5 6 7 5 4 1 6 9 10 9 9 9 9 9 9 8 4 3 3 4 6 4 3 3 4 4 4 4 6 7 10
Wind_Direction
229 223 219 213 219 214 204 214 218 204 211 209 210 211 194 186 181 161 130 132 138 152 152 149 142 135 126 119 125 128 124 126 127 127 128 128 130 132 132 136 130 127 136
235 230 230 218 221 219 216 213 213 205 212 210 212 212 216 199 199 177 156 151 159 162 177 182 170 164 165 156 151 150 145 144 147 146 142 142 143 146 149 156 178 225 255
238 234 234 226 219 214 214 215 208 211 213 207 211 212 209 215 217 194 168 174 163 167 180 206 202 187 184 186 189 173 169 171 171 169 165 162 164 173 187 213 246 267 272
241 239 235 233 227 217 213 207 213 209 208 211 210 201 203 192 218 205 194 186 175 167 171 176 199 204 197 192 188 179 185 182 183 185 184 182 189 204 234 261 270 276 278
246 238 235 232 224 215 212 211 210 213 214 213 214 208 214 204 207 208 214 196 172 185 171 155 181 186 179 184 183 189 192 189 190 188 190 196 203 219 248 266 278 284 283
250 242 234 233 227 217 212 213 209 215 223 217 221 214 215 214 214 216 224 210 206 193 185 172 184 177 179 182 187 189 184 185 187 192 194 193 192 202 225 255 273 283 288
248 241 235 229 223 219 216 213 211 212 217 216 219 217 218 222 225 205 223 222 216 203 202 195 200 185 173 181 190 188 192 189 188 191 187 180 179 197 228 249 268 278 285
243 239 236 230 225 222 221 217 214 215 213 211 215 217 221 217 223 226 220 227 232 205 220 217 203 197 202 185 160 178 188 189 199 193 188 188 192 206 225 251 269 277 285
239 234 232 232 229 222 219 216 212 214 213 213 218 214 219 223 208 212 220 222 229 228 225 231 227 211 202 205 179 182 191 200 208 214 206 197 192 204 232 245 255 270 285
240 234 231 230 227 224 222 219 215 216 215 214 217 228 239 238 216 205 208 221 222 226 231 225 234 235 219 215 202 169 185 201 209 218 218 210 205 210 210 215 227 264 242
235 230 227 228 226 223 225 222 217 215 215 216 211 211 225 233 238 235 222 210 208 217 225 230 230 236 234 225 214 202 192 206 212 219 223 220 215 214 212 209 229 227 202
236 229 224 223 222 221 220 218 214 213 215 219 215 212 210 214 224 228 233 231 225 215 218 228 239 237 236 234 223 187 195 209 215 220 224 220 218 220 225 221 227 225 218
239 237 226 221 219 219 216 212 209 211 211 213 212 216 220 223 222 222 228 229 226 222 225 227 225 228 233 235 226 191 209 213 217 220 223 220 215 218 229 236 240 243 239
258 244 230 225 221 215 212 209 210 210 207 207 211 211 212 213 210 216 222 216 220 218 220 223 203 225 235 235 215 208 217 207 215 219 222 220 216 217 224 235 245 255 260
347 283 192 191 201 204 203 200 205 205 204 207 205 204 204 199 201 211 218 216 215 217 216 206 193 187 225 240 201 226 224 186 202 213 219 220 219 221 227 234 241 247 254
24 30 53 104 140 163 190 199 198 197 196 197 196 195 192 192 196 200 207 206 211 216 214 182 185 174 195 211 193 232 203 155 184 200 211 219 221 224 231 239 245 250 254
35 40 47 57 77 94 132 167 177 182 187 189 189 189 193 191 189 189 193 196 200 205 210 182 173 188 196 199 173 198 191 190 164 165 188 206 215 223 233 244 251 257 263
38 40 46 52 58 67 80 104 135 166 180 181 177 177 178 175 173 177 180 184 185 193 194 183 169 168 175 157 161 163 167 167 148 124 136 143 158 187 220 252 266 274 276
40 42 45 46 48 52 62 81 100 118 141 159 168 170 169 167 169 172 176 177 179 179 178 175 152 147 154 150 155 149 141 135 131 126 123 110 99 89 74 55 28 359 334
42 41 43 43 42 43 44 62 88 101 109 124 139 146 154 163 171 171 173 173 169 164 164 161 153 150 140 147 160 151 135 125 116 112 100 101 99 91 77 65 55 45 36
40 39 41 40 36 33 31 31 61 88 98 108 114 121 129 127 133 168 173 167 163 165 162 159 153 146 140 145 144 145 134 123 94 88 96 88 89 77 69 62 55 53 53
37 38 37 36 35 30 26 31 32 84 92 94 99 110 129 142 129 125 95 88 108 157 155 149 145 140 130 126 132 143 143 143 114 79 92 80 74 68 56 50 54 60 60
35 35 33 31 32 30 30 37 35 65 82 82 88 107 126 136 147 136 129 124 94 60 37 125 128 120 123 127 135 131 120 108 101 101 104 90 82 77 68 58 60 63 63
33 31 29 26 29 29 29 33 26 74 84 85 88 102 126 138 136 143 141 126 113 96 77 96 101 97 94 105 107 108 112 111 106 90 103 100 97 91 83 69 63 66 66
30 30 30 26 25 29 27 25 18 79 88 86 83 82 95 113 95 134 139 128 115 99 72 69 71 81 70 52 46 130 140 140 124 104 92 108 119 106 91 91 80 76 72
27 30 36 33 31 30 28 25 15 78 87 86 83 81 71 85 88 3 148 139 131 124 123 117 111 119 103 86 26 79 110 132 131 117 103 126 144 143 112 83 79 78 76
Height
1558 1560 1561 1561 1562 1563 1563 1564 1566 1568 1569 1570 1571 1573 1573 1574 1574 1574 1573 1571 1571 1571 1571 1571 1572 1572 1573 1573 1574 1574 1575 1576 1576 1577 1577 1578 1578 1579 1579 1580 1580 1580 1580
1555 1557 1558 1559 1560 1561 1562 1563 1565 1566 1567 1569 1570 1571 1572 1573 1573 1573 1573 1571 1570 1570 1570 1570 1571 1572 1572 1573 1573 1574 1574 1575 1576 1576 1577 1577 1578 1578 1579 1579 1579 1580 1580
1552 1553 1555 1556 1557 1558 1560 1561 1563 1564 1566 1567 1568 1569 1570 1571 1572 1572 1572 1572 1571 1570 1570 1570 1570 1571 1571 1572 1572 1573 1574 1574 1575 1575 1576 1577 1577 1578 1578 1578 1578 1579 1579
1548 1549 1551 1553 1554 1556 1557 1559 1561 1562 1564 1565 1567 1568 1569 1569 1570 1571 1571 1571 1571 1571 1570 1570 1570 1570 1571 1571 1572 1572 1573 1573 1574 1574 1575 1575 1576 1576 1577 1577 1577 1577 1577
1544 1545 1547 1549 1551 1552 1554 1556 1558 1560 1562 1563 1565 1566 1567 1568 1569 1569 1570 1571 1571 1570 1571 1569 1569 1570 1570 1570 1571 1571 1571 1572 1572 1573 1574 1574 1575 1575 1575 1575 1576 1576 1576
1539 1541 1542 1544 1546 1548 1550 1552 1555 1556 1559 1560 1562 1564 1565 1566 1566 1567 1568 1569 1569 1570 1570 1570 1570 1569 1569 1569 1570 1570 1570 1571 1571 1572 1572 1573 1573 1573 1573 1574 1574 1574 1574
1534 1535 1537 1539 1541 1543 1545 1548 1550 1553 1555 1557 1560 1561 1562 1563 1564 1565 1566 1567 1568 1568 1569 1569 1570 1570 1569 1569 1569 1569 1569 1570 1570 1570 1571 1571 1571 1571 1572 1572 1572 1572 1571
1528 1530 1532 1534 1536 1538 1541 1543 1546 1548 1551 1553 1556 1557 1558 1560 1560 1561 1562 1564 1565 1566 1567 1568 1569 1568 1569 1569 1568 1568 1568 1569 1569 1569 1570 1570 1570 1570 1570 1570 1570 1570 1570
1522 1524 1526 1528 1530 1533 1535 1538 1541 1543 1546 1548 1551 1553 1554 1555 1556 1558 1559 1560 1561 1563 1564 1565 1566 1567 1568 1568 1568 1567 1568 1568 1568 1568 1569 1569 1569 1569 1569 1568 1568 1568 1568
1516 1518 1520 1523 1525 1528 1530 1533 1535 1538 1541 1543 1545 1548 1550 1551 1553 1554 1555 1556 1557 1559 1560 1561 1563 1564 1565 1566 1566 1566 1566 1567 1567 1568 1568 1568 1568 1568 1568 1567 1567 1567 1567
1510 1512 1514 1517 1520 1522 1524 1527 1530 1532 1535 1538 1540 1543 1545 1547 1549 1550 1551 1553 1554 1555 1556 1558 1559 1560 1562 1563 1563 1564 1564 1565 1566 1566 1567 1567 1567 1567 1566 1566 1566 1566 1566
1506 1507 1509 1511 1514 1516 1518 1521 1524 1527 1529 1532 1535 1537 1540 1542 1543 1546 1547 1548 1550 1551 1552 1553 1555 1556 1557 1559 1560 1561 1562 1563 1564 1565 1565 1566 1566 1565 1565 1565 1565 1565 1565
1502 1503 1504 1506 1509 1511 1513 1516 1519 1521 1523 1526 1529 1532 1534 1537 1539 1541 1543 1544 1545 1547 1548 1549 1550 1552 1553 1554 1556 1557 1559 1560 1561 1562 1563 1564 1564 1564 1564 1564 1563 1563 1563
1499 1500 1501 1502 1504 1506 1509 1511 1513 1516 1518 1521 1523 1526 1528 1531 1534 1536 1538 1540 1541 1543 1544 1545 1546 1548 1549 1551 1552 1553 1555 1557 1558 1559 1560 1561 1562 1562 1562 1562 1562 1562 1561
1498 1498 1498 1499 1501 1503 1505 1507 1509 1511 1514 1516 1518 1521 1523 1526 1528 1531 1533 1535 1538 1539 1540 1542 1543 1544 1545 1547 1548 1550 1552 1553 1555 1556 1557 1558 1559 1560 1560 1560 1560 1559 1559
1497 1497 1497 1498 1499 1500 1502 1503 1505 1507 1509 1512 1514 1517 1519 1521 1524 1526 1528 1530 1533 1535 1537 1538 1539 1541 1542 1543 1544 1546 1548 1549 1551 1553 1554 1555 1556 1557 1557 1557 1557 1557 1557
1498 1497 1497 1497 1497 1498 1500 1501 1502 1504 1506 1508 1511 1513 1515 1518 1520 1522 1525 1527 1529 1531 1534 1536 1537 1538 1540 1541 1542 1544 1545 1547 1548 1549 1551 1552 1553 1553 1554 1554 1554 1554 1553
1499 1498 1498 1498 1498 1498 1499 1499 1500 1502 1504 1506 1508 1510 1512 1515 1517 1519 1522 1524 1526 1528 1531 1533 1535 1536 1537 1538 1539 1541 1542 1544 1546 1546 1547 1549 1549 1550 1550 1551 1551 1550 1550
1501 1500 1499 1499 1499 1499 1499 1499 1500 1501 1503 1504 1506 1508 1510 1513 1515 1518 1520 1523 1524 1526 1529 1531 1533 1534 1535 1536 1537 1538 1540 1542 1543 1544 1545 1546 1546 1547 1547 1547 1547 1547 1546
1503 1502 1501 1501 1500 1500 1500 1500 1500 1501 1502 1503 1505 1507 1510 1512 1515 1517 1519 1521 1523 1525 1527 1529 1531 1532 1533 1534 1536 1537 1538 1540 1541 1542 1543 1543 1544 1544 1545 1545 1544 1544 1543
1505 1504 1503 1502 1501 1501 1500 1500 1501 1501 1502 1503 1505 1507 1510 1512 1515 1517 1520 1522 1523 1525 1527 1528 1530 1532 1533 1534 1535 1536 1537 1539 1540 1541 1542 1542 1543 1543 1543 1543 1543 1542 1542
1507 1506 1504 1503 1502 1501 1501 1501 1501 1502 1502 1504 1505 1508 1510 1513 1515 1517 1519 1521 1523 1525 1527 1529 1530 1531 1532 1533 1534 1535 1536 1538 1539 1541 1541 1542 1542 1542 1542 1542 1541 1541 1540
1509 1507 1506 1504 1503 1502 1501 1501 1501 1502 1503 1504 1506 1508 1511 1513 1516 1518 1520 1521 1523 1525 1527 1530 1531 1531 1532 1533 1534 1535 1536 1538 1538 1540 1541 1542 1542 1542 1542 1542 1541 1541 1540
1511 1509 1508 1506 1505 1503 1502 1502 1502 1503 1504 1506 1507 1509 1512 1514 1517 1519 1521 1523 1525 1526 1528 1530 1531 1531 1532 1533 1535 1536 1536 1537 1539 1540 1542 1542 1543 1543 1543 1542 1542 1541 1540
1514 1512 1510 1508 1507 1505 1504 1503 1503 1504 1505 1507 1508 1510 1512 1515 1517 1520 1522 1524 1525 1527 1529 1530 1531 1532 1533 1534 1535 1537 1538 1539 1540 1541 1542 1543 1544 1544 1544 1543 1542 1542 1541
1516 1514 1512 1510 1508 1507 1506 1505 1505 1506 1507 1508 1509 1511 1513 1515 1518 1520 1523 1525 1527 1529 1530 1532 1533 1534 1535 1536 1537 1538 1539 1541 1541 1542 1542 1543 1544 1545 1545 1545 1544 1543 1542